Location: Newark
(34.6283°N, 36.0776°E)
Time: 21:04:15
(UTC+00:00)

Vanguard 1 - Visible Passes

Search period start: 19 October 2019 00:00
Search period end: 29 October 2019 00:00
Orbit: 653 x 3830 km, 34.2° (Epoch: 18 October)

Date Brightness Start Highest point End Pass type
(mag) Time Alt. Az. Time Alt. Az. Time Alt. Az.
19 Oct 13.5 01:11:36 24° SW 01:11:36 24° SW 01:24:54 10° S visible
19 Oct 11.2 15:45:34 10° SW 15:52:30 57° SSE 16:02:37 17° E visible
19 Oct 11.6 18:04:46 10° W 18:14:46 89° S 18:15:18 85° ESE visible
19 Oct 13.2 20:25:28 10° W 21:06:16 - ESE 20:28:00 20° W visible
19 Oct 13.6 23:19:00 26° SSE 23:19:00 26° SSE 23:26:57 10° SSE visible
20 Oct 13.7 01:31:45 17° SW 01:31:45 17° SW 01:42:18 10° SSW visible
20 Oct 11.1 16:06:13 10° WSW 16:13:26 69° SSE 16:22:09 23° E visible
20 Oct 11.6 18:25:48 10° W 18:34:50 77° W 18:34:50 77° W visible
20 Oct 13.5 20:46:38 10° W 21:26:21 - ESE 20:47:31 13° W visible
20 Oct 13.7 23:39:05 24° S 23:39:05 24° S 23:46:53 10° SSE visible
21 Oct 13.9 01:51:49 11° SW 01:51:49 11° SW 01:55:11 10° SW visible
21 Oct 11.1 16:27:02 10° WSW 16:34:31 79° SSE 16:41:40 31° E visible
21 Oct 11.9 18:46:49 10° W 18:54:21 60° W 18:54:21 60° W visible
21 Oct13.721:46:21SE21:46:21SE21:07:02WNWvisible
21 Oct 13.7 23:59:05 21° S 23:59:05 21° S 00:06:17 10° SSE visible
22 Oct 11.1 16:47:56 10° W 16:55:42 86° S 17:01:12 41° E visible
22 Oct 12.2 19:07:52 10° W 19:13:53 46° W 19:13:53 46° W visible
22 Oct13.922:06:15SE22:06:15SE21:26:34WNWvisible
23 Oct 13.8 00:18:58 17° SSW 00:18:58 17° SSW 00:24:51 10° S visible
23 Oct 11.2 17:08:52 10° W 17:16:59 89° S 17:20:44 53° E visible
23 Oct 12.6 19:28:55 10° W 19:33:25 34° W 19:33:25 34° W visible
23 Oct 14.2 22:26:04 10° SSE 22:26:04 10° SSE 22:26:18 10° SSE visible
24 Oct 14.0 00:38:46 13° SSW 00:38:46 13° SSW 00:41:58 10° SSW visible
24 Oct 10.7 15:10:35 10° WSW 15:16:31 68° SSE 15:27:14 10° E visible
24 Oct 11.2 17:29:50 10° W 17:38:17 88° S 17:40:16 69° E visible
24 Oct 12.9 19:50:01 10° W 19:52:58 24° W 19:52:58 24° W visible
24 Oct 14.2 22:45:47 11° SSE 22:45:47 11° SSE 22:46:12 10° SSE visible
25 Oct 10.7 15:31:23 10° WSW 15:37:32 79° SSE 15:47:09 15° E visible
25 Oct 11.3 17:50:49 10° W 17:59:36 85° S 17:59:50 84° SSE visible
25 Oct 13.2 20:11:09 10° W 20:12:31 16° W 20:12:31 16° W visible
25 Oct 14.2 23:05:25 10° S 23:05:25 10° S 23:05:29 10° S visible
26 Oct 10.7 15:52:16 10° W 15:58:38 86° S 16:06:43 21° E visible
26 Oct 11.5 18:11:47 10° W 18:19:25 70° WSW 18:19:25 70° WSW visible
27 Oct 10.7 16:13:11 10° W 16:19:49 89° S 16:26:20 29° E visible
27 Oct 11.8 18:32:47 10° W 18:39:01 53° W 18:39:01 53° W visible
28 Oct 10.8 16:34:07 10° W 16:41:00 87° S 16:45:57 39° E visible
28 Oct 12.2 18:53:48 10° W 18:58:39 38° W 18:58:39 38° W visible
